SKYNET 5C

Last updated on Wed Sep 09 2026 00:02:58 GMT+0000 (Coordinated Universal Time)

1 33055U 08030A 26251.44143981 -.00000159 00000+0 00000+0 0 9991 2 33055 3.9961 75.9934 0004773 105.1592 307.4953 1.00271560 66798
UTC large
Height (km)
Speed (km/s)
/
Latitude / Longitude
Inclination (degrees)
Orbital Period (minutes)
Azimuth
Elevation
Range (km)
Doppler Factor

Next 0 passes for location: London (51.5072 / 0.1276)

No passes found over London.
SKYNET 5C